Regional Weather Roundup
Issued by NWS

Home | Current Version | Previous Version | Graphics & Text | Print | Product List | Glossary Off
Versions: 1 2 3 4 5 6 7 8 9 10 11 12 13 14 15 16 17 18 19 20 21 22 23 24 25 26 27 28 29 30 31 32 33 34 35 36 37 38 39 40 41 42 43 44 45 46 47 48 49 50

000
ASUS43 KMKX 121310
RWRWI

WISCONSIN REGIONAL WEATHER ROUNDUP
NATIONAL WEATHER SERVICE MILWAUKEE/SULLIVAN WI
700 AM CST FRI FEB 12 2016

NOTE: "FAIR" INDICATES FEW OR NO CLOUDS BELOW 12,000 FEET WITH NO
SIGNIFICANT WEATHER AND/OR OBSTRUCTIONS TO VISIBILITY.

WIZ001-002-006>008-014>016-023>028-121400-
NORTHWEST WISCONSIN

CITY           SKY/WX    TMP DP  RH WIND       PRES   REMARKS
SUPERIOR ARPT  CLEAR      2  -7  65 NW10G18   30.28R WCI -14
ASHLAND        CLOUDY     5  -2  72 NW10      30.19R WCI -10
HAYWARD        CLEAR      2  -6  69 VRB5      30.18R WCI  -8
SIREN          CLEAR      4  -4  71 NW6       30.25R WCI  -7
CUMBERLAND     CLEAR      5  -2  72 NW12      30.20R WCI -11
RICE LAKE      CLEAR      6  -2  68 NW9       30.22R WCI  -8
CHETEK         PTCLDY     6  -2  71 MISG      30.21R
LADYSMITH      CLEAR      6  -3  68 NW18      30.17R WCI -14
EAU CLAIRE     CLEAR      9  -1  64 NW15      30.21R WCI  -8
MENOMONIE      CLEAR     10   1  64 NW14G22   30.23R WCI  -5
NEW RICHMOND   CLEAR      7  -1  71 NW13      30.26R WCI  -9
OSCEOLA        CLEAR      9   1  69 NW10      30.30R WCI  -6
$$

WIZ003>005-009-010-017-018-121400-
NORTH CENTRAL WISCONSIN

CITY           SKY/WX    TMP DP  RH WIND       PRES   REMARKS
MANITOWISH WTR CLOUDY     3  -3  76 NW14G24   30.03R HAZE    WCI -15
ARBOR VITAE    MOCLDY     8   0  72 NW13G18   30.03R WCI  -8
WOODRUFF       MOCLDY     8   0  72 NW13G18   30.03R WCI  -8
RHINELANDER    CLOUDY     7  -2  66 NW8G20    30.02S WCI  -6
EAGLE RIVER    CLEAR      5  -2  71 W13G20    30.00R WCI -11
LAND O LAKES   LGT SNOW   7   2  82 W7        29.99R WCI  -5
PHILLIPS       PTCLDY     3  -4  74 NW8G17    30.09R WCI -11
TOMAHAWK       CLOUDY     5  -2  70 W12       30.06S WCI -10
MEDFORD        PTCLDY     6  -2  70 NW13G18   30.09R WCI -10
MERRILL        PTCLDY     7  -2  65 NW9       30.09R WCI  -6
$$

WIZ029-030-035-036-043>047-121400-
CENTRAL WISCONSIN

CITY           SKY/WX    TMP DP  RH WIND       PRES   REMARKS
WAUSAU         PTCLDY    10  -1  61 NW16G24   30.08R WCI  -7
MOSINEE        PTCLDY     9   3  78 NW15      30.10R WCI  -8
MARSHFIELD     PTCLDY    10   0  63 NW16      30.10R WCI  -7
STEVENS POINT  CLOUDY    10   3  74 NW8       30.11R WCI  -3
WAUPACA        MOCLDY    15   3  60 W9        30.12R WCI   3
WAUTOMA        FLURRIES  13   6  73 W10       30.13R WCI   0
WISC RAPIDS    MOCLDY    12   3  67 NW13      30.14R WCI  -3
CAMP DOUGLAS   CLOUDY    12  10  92 W10       30.16R WCI  -1
$$

WIZ011>013-019>022-031-037>040-048>050-121400-
NORTHEAST WISCONSIN

CITY           SKY/WX    TMP DP  RH WIND       PRES   REMARKS
ANTIGO         MOCLDY     6  -2  67 NW14      30.03R WCI -11
SHAWANO        CLOUDY    13   2  59 NW6       30.09S WCI   4
OCONTO         CLEAR     10   0  61 W9        30.08S WCI  -2
STURGEON BAY   CLEAR     10  -2  56 W14       30.06S WCI  -5
GREEN BAY      CLOUDY    13   2  61 NW15      30.09S WCI  -3
MANITOWOC      CLOUDY    14   4  64 NW15      30.09S WCI  -1
APPLETON       CLOUDY    12   1  62 W14       30.07S WCI  -3
CLINTONVILLE   PTCLDY    12   1  62 NW9G17    30.10R WCI   0
OSHKOSH        CLOUDY    14   4  64 W12       30.10S WCI   0
$$

WIZ032>034-041-042-053>061-121400-
SOUTHWEST WISCONSIN

CITY           SKY/WX    TMP DP  RH WIND       PRES   REMARKS
LA CROSSE      CLOUDY    14   8  77 NW14      30.22R WCI  -1
SPARTA         FLURRIES  12   8  82 W7        30.20R WCI   2
VIROQUA        MOCLDY     7   5  91 NW7       30.16R WCI  -5
BOSCOBEL       CLOUDY    14   8  77 W3        30.22R
PRAIRIE DU CHI MOCLDY    13   7  74 NW8       30.23S WCI   2
PLATTEVILLE    CLOUDY    14  11  87 NW13      30.17R WCI   0
$$

WIZ056-057-062-063-064-067-068-121400-
SOUTH CENTRAL WISCONSIN

CITY           SKY/WX    TMP DP  RH WIND       PRES   REMARKS
REEDSBURG      CLOUDY    12   7  79 W8        30.16R WCI   0
BARABOO/DELLS  CLOUDY    12   6  77 W9        30.14R WCI  -1
LONE ROCK      CLOUDY    14   6  70 NW10      30.20R WCI   1
MINERAL POINT  FLURRIES  14  10  85 NW8       30.15R WCI   3
MADISON        CLOUDY    14   6  70 NW10      30.15R WCI   1
MIDDLETON      CLOUDY    15   9  74 NW14      30.16R WCI   1
WATERTOWN      CLOUDY    15   6  69 NW12G17   30.13R WCI   1
MONROE         FLURRIES  14  10  85 NW15      30.13R WCI  -1
JANESVILLE     CLOUDY    18  10  73 W10       30.14R WCI   6
$$

WIZ051-052-058>065-066-070>072-121400-
SOUTHEAST WISCONSIN

CITY           SKY/WX    TMP DP  RH WIND       PRES   REMARKS
MILWAUKEE      CLOUDY    17   2  51 NW12      30.11S WCI   4
WAUKESHA       CLOUDY    12   3  67 W10       30.11S WCI  -1
MILWAUKEE/TIMM CLOUDY    16   1  53 W15       30.12R WCI   1
RACINE         CLOUDY    18   4  54 NW14      30.12S WCI   4
BURLINGTON     CLOUDY    15   7  68 W13       30.12S WCI   2
KENOSHA        CLOUDY    18   8  65 W16       30.10F WCI   3
FOND DU LAC    CLOUDY    14   4  64 NW15      30.11R WCI  -1
SHEBOYGAN      CLOUDY    14   3  61 W9        30.09S WCI   2
WEST BEND      CLOUDY    14   3  62 W13       30.10R WCI   0
JUNEAU         CLOUDY    13   5  69 W9        30.13R WCI   1
$$

LSZ147-162-121400-
LAKE SUPERIOR

STATION/POSITION TIME  TEMP    WIND        PRES    WAVE
                       AIR SEA DIR/SP/G            HT/PER
                 (UTC) (F)     (DEG/KT/KT) (MB)    (FT/S)
DEVILS ISLAND    1300    5     320/ 28/ 32 1024.2R
PORT WING        1217    7     310/ 18/ 26 1022.7R
SAXON HARBOR     1240    8                 1021.0R
$$

LMZ867-665-643>646-121400-
LAKE MICHIGAN

STATION/POSITION TIME  TEMP    WIND        PRES    WAVE
                       AIR SEA DIR/SP/G            HT/PER
                 (UTC) (F)     (DEG/KT/KT) (MB)    (FT/S)
CHAMBERS ISLAND  1200   13     230/ 10/ 16 1017.3S
ALGOMA LAKESHORE 1211          300/  4/  8   N/A
KEWAUNEE LAKESHO 1200   14     300/  6/ 12 1017.6R
SHEBOYGAN LAKESH 1300   15     290/ 11/ 13 1020.7R
PORT WASHINGTON  1240   16     290/  6/ 13 1020.3S
MILWAUKEE LAKESH 1210   18     290/ 12/ 15   N/A
KENOSHA   LAKESH 1300   18     290/ 10/ 20 1019.6S
$$

TC  - TEMPERATURE IN CELSIUS
VSB - VISIBILITY IN STATUTE MILES
WCI - WIND CHILL INDEX
HX  - HEAT INDEX




USA.gov is the U.S. government's official web portal to all federal, state and local government web resources and services.